sat.trackr.live / text

‹ back to catalog

STARLINK-31973

NORAD 59943 · 2024-106X

PAYLOAD ACTIVE UNKNOWN

§ Identity

Operator
Country
US
Launch date
2024-06-01
Launch site
AFETR
Launch vehicle
Mass (kg)
RCS (m²)

Purposes: comms

External: N2YO · Heavens-Above · Gunter

§ Orbital elements

Epoch: 2026-05-25T00:23:42.046368Z

Period
94.27 min
Inclination
43.0003°
Eccentricity
0.0001078
Mean motion
15.27579309 rev/d
Perigee alt
482.3 km
Apogee alt
483.8 km
Semi-major
6,861.2 km
B*
7.6478e-6
RAAN
261.6740°
Arg perigee
279.8521°
Mean anomaly
80.2209°
Rev number
11,219

§ Raw data

STARLINK-319731 59943U 24106X   26145.01645887 -.00000052  00000+0  76478-5 0  99942 59943  43.0003 261.6740 0001078 279.8521  80.2209 15.27579309112191

JSON: /api/v1/satellites/59943 · /tle

For live sub-satellite position, see the globe view (requires WebGL).

§ Visibility from observer

Set your observer location to see the next 7 days of passes ≥ 10°. The values pass through the URL so the page stays shareable.

No JS? Fill the form by hand. The geolocation button needs JavaScript.